Location: Malanoce
(44.2500°N, 7.4667°E)
Time: 22:46:51
(UTC+00:00)

IRS-P3 - Pass Details

Date: 17 November 2025
Orbit: 810 x 816 km, 99.0° (Epoch: 09 December)

Event Time Altitude Azimuth Distance (km) Brightness Sun altitude
Rises 16:48:45 0° 149° (SSE) 3,329 7.2 -8.7°
Reaches altitude 10° 16:51:07 10° 145° (SE) 2,401 6.4 -9.1°
Maximum altitude 16:56:15 52° 70° (ENE) 1,005 4.2 -10.0°
Drops below altitude 10° 17:01:25 10° 355° (N) 2,414 6.5 -10.9°
Sets 17:03:49 0° 351° (N) 3,349 7.3 -11.3°
